Lid_Strength_Index
8 11 13 11 10 12 12 13 14 13 10 12 12 12 14 15 15 15 14 15 16 14 14 15 15 15 16 16 16 16 17 15 14 15 15 17 17 17 16 15 15 15 14 12
11 14 10 9 10 11 12 13 14 13 11 12 13 13 13 15 14 14 14 14 14 15 16 16 16 16 16 16 16 16 17 17 14 14 16 16 17 17 16 15 15 15 15 14
13 11 8 10 11 12 13 14 14 13 12 12 14 15 14 14 14 14 13 13 14 14 15 15 16 17 17 16 18 17 17 17 16 15 16 17 17 16 16 17 16 16 16 16
11 9 10 11 12 11 15 11 12 13 14 17 12 19 15 14 16 16 14 14 14 14 14 15 16 17 18 18 17 18 18 18 17 16 16 16 16 18 18 18 17 17 16 16
13 11 12 13 12 10 13 10 11 13 14 16 16 17 17 16 16 15 15 14 13 14 14 16 16 16 17 18 19 18 18 18 17 17 17 17 18 18 18 18 18 18 17 17
11 8 9 10 9 9 9 11 11 13 15 19 15 16 15 17 14 13 11 13 13 14 15 16 16 16 18 18 19 19 19 19 18 18 17 18 19 19 19 19 19 19 18 18
12 11 9 9 12 10 10 13 19 20 20 20 14 16 15 14 12 10 10 12 13 14 16 17 18 19 19 19 19 18 19 20 19 18 18 18 18 18 19 20 20 20 19 19
16 17 11 10 10 13 12 13 18 22 21 19 15 18 15 12 10 10 12 12 13 15 16 17 19 20 19 19 19 19 19 20 19 19 20 19 19 19 20 20 20 20 20 20
16 16 10 9 8 9 13 15 11 16 15 18 17 16 14 16 15 15 14 14 15 17 17 19 20 20 19 19 19 19 19 20 20 20 21 21 21 21 21 21 21 21 20 20
12 17 12 10 8 9 10 10 17 16 22 22 19 19 16 17 14 15 16 16 18 18 20 20 20 20 19 19 19 19 19 20 20 20 21 22 22 22 21 22 22 22 22 21
11 13 14 11 13 14 12 14 14 15 16 20 21 18 15 13 13 14 15 17 20 21 22 21 21 21 20 20 20 20 20 20 21 21 21 22 22 22 22 22 22 22 22 22
10 13 16 14 11 10 11 13 14 18 18 17 16 16 18 18 16 15 17 19 21 22 22 23 22 22 21 21 21 21 21 21 21 21 22 22 23 23 23 23 23 22 23 22
10 14 18 18 13 11 13 12 12 13 14 17 19 18 18 18 19 19 20 21 22 23 23 24 23 23 22 22 22 22 22 23 22 22 23 23 24 23 24 24 23 23 23 23
9 15 15 18 16 14 15 14 13 14 18 17 16 16 14 15 20 21 21 21 23 24 24 24 24 25 25 23 23 23 23 23 23 23 24 24 24 24 25 24 24 24 24 25
13 18 16 14 13 13 14 14 14 17 16 18 16 17 14 13 16 22 22 22 23 24 24 24 26 27 27 26 25 24 24 24 24 25 25 26 26 25 25 26 26 26 25 26
16 18 16 19 14 14 16 16 16 16 15 14 15 16 11 16 19 22 23 23 23 24 24 25 25 27 27 27 26 25 25 25 25 26 27 26 26 25 26 25 25 25 25 25
15 17 19 22 19 19 26 19 16 16 15 14 16 15 19 19 20 21 22 22 23 24 24 25 26 26 27 26 25 26 26 26 26 26 26 26 25 25 24 24 24 24 24 24
20 19 21 22 23 27 20 20 18 16 17 20 18 16 15 18 22 22 21 22 23 23 24 25 25 26 26 25 26 26 26 26 26 26 25 24 24 24 23 23 23 23 23 23
13 19 26 27 26 24 19 19 20 20 19 24 24 20 20 18 19 22 19 20 22 23 24 24 24 25 26 26 26 26 25 25 25 25 24 23 23 23 23 23 23 23 23 23
14 15 19 25 26 30 22 24 27 24 24 25 25 23 19 17 18 23 22 22 24 24 24 25 25 25 26 25 25 25 25 25 25 24 23 23 22 23 23 23 24 23 24 24
19 19 19 19 20 20 26 27 25 20 21 24 24 23 21 20 21 21 22 23 23 24 25 24 25 25 26 25 24 25 25 25 23 23 23 23 23 24 24 24 24 24 24 25
19 20 24 22 20 21 22 21 18 22 27 27 24 20 20 21 22 22 22 23 24 25 24 25 26 26 25 24 24 24 24 23 22 23 23 24 23 23 23 24 24 25 25 26
22 17 18 17 17 21 20 21 23 23 22 25 24 23 20 21 22 22 23 23 24 25 25 25 25 25 24 23 23 24 24 23 23 24 24 24 24 24 24 24 25 25 25 26
23 27 24 20 21 22 28 28 27 27 26 26 21 21 20 22 22 22 23 24 25 25 25 24 25 25 25 24 23 24 23 23 24 25 25 25 25 25 24 24 24 25 27 27
22 23 26 25 22 26 28 30 29 27 24 21 20 20 20 21 22 22 23 24 24 24 24 24 25 25 25 24 24 24 24 24 25 25 25 25 24 25 25 25 25 25 25 24
23 21 22 21 26 26 27 30 27 25 23 20 19 20 19 19 21 22 23 23 24 24 24 24 25 25 25 25 25 25 24 24 25 26 25 25 26 26 26 26 26 20 19 18